Date String (YYYY-MM-DD hh:mm:ss) UTC,Instrument flags,Ambient pressure (hPa),Sample flow (lpm),Bypass flow (lpm),Sample temperature (°C),Ambient temperature (°C),ASC tube jacket temperature (°C),LED temperature (°C),Box temperature (°C),Sample RH (%),Span deviation,Mass concentration (μg/m³),Mass concentration (μg/m³),Mass concentration (μg/m³)
DateTimeUTC,F1_M11,P_M11,Q1_M11,Q2_M11,T1_M11,T2_M11,T3_M11,T4_M11,T5_M11,U1_M11,ZSPAN_M11,X2_M11,X0_M11,X1_M11
2023-05-09 14:00:00,,0829.8,4.99,0.00,26.7,25.2,00.0,35.0,28.4,24.4,0000.0,0005.14,0011.12,0003.99
2023-05-09 14:01:00,,0829.8,4.99,0.00,26.7,25.2,00.0,35.0,28.4,24.2,0000.0,0005.17,0011.20,0003.98
2023-05-09 14:02:00,,0829.8,5.01,0.00,26.7,25.2,00.0,35.0,28.5,24.1,0000.0,0005.19,0011.80,0003.98
2023-05-09 14:03:00,,0829.8,5.00,0.00,26.7,25.2,00.0,35.0,28.5,24.3,0000.0,0005.17,0012.90,0003.95
2023-05-09 14:04:00,,0829.8,5.00,0.00,26.7,25.3,00.0,35.0,28.5,24.4,0000.0,0005.13,0013.09,0003.93
2023-05-09 14:05:00,,0829.8,5.00,0.00,26.7,25.3,00.0,35.0,28.5,24.3,0000.0,0005.14,0013.79,0003.92
2023-05-09 14:06:00,,0829.8,5.00,0.00,26.8,25.3,00.0,35.0,28.5,24.3,0000.0,0005.11,0013.62,0003.92
2023-05-09 14:07:00,,0829.8,5.00,0.00,26.8,25.3,00.0,35.0,28.5,24.3,0000.0,0005.10,0013.65,0003.92
2023-05-09 14:08:00,,0829.8,5.00,0.00,26.8,25.3,00.0,35.1,28.5,24.2,0000.0,0005.06,0013.31,0003.93
2023-05-09 14:09:00,,0829.8,5.00,0.00,26.8,25.3,00.0,35.1,28.5,24.3,0000.0,0005.08,0013.43,0003.93
2023-05-09 14:10:00,,0829.8,5.00,0.00,26.8,25.3,00.0,35.1,28.5,24.6,0000.0,0005.07,0013.43,0003.92
2023-05-09 14:11:00,,0829.8,5.00,0.00,26.8,25.3,00.0,35.1,28.5,24.6,0000.0,0005.06,0013.38,0003.93
2023-05-09 14:12:00,,0829.8,5.00,0.00,26.8,25.3,00.0,35.1,28.5,24.6,0000.0,0005.05,0013.72,0003.93
2023-05-09 14:13:00,,0829.8,5.00,0.00,26.8,25.4,00.0,35.1,28.6,24.9,0000.0,0005.02,0014.54,0003.93
2023-05-09 14:14:00,,0829.8,5.00,0.00,26.8,25.3,00.0,35.1,28.6,24.8,0000.0,0004.97,0013.54,0003.94
2023-05-09 14:15:00,,0829.9,4.99,0.00,26.8,25.3,00.0,35.1,28.6,24.6,0000.0,0004.98,0013.03,0003.98
2023-05-09 14:16:00,,0829.8,5.00,0.00,26.8,25.3,00.0,35.1,28.6,24.8,0000.0,0005.02,0012.68,0004.01
2023-05-09 14:17:00,,0829.9,5.00,0.00,26.8,25.3,00.0,35.1,28.6,24.6,0000.0,0005.05,0013.22,0004.03
2023-05-09 14:18:00,,0830.0,5.00,0.00,26.8,25.3,00.0,35.1,28.6,24.8,0000.0,0005.03,0012.81,0004.05
2023-05-09 14:19:00,,0830.0,5.00,0.00,26.8,25.4,00.0,35.1,28.6,24.6,0000.0,0005.04,0012.83,0004.05
2023-05-09 14:20:00,,0830.0,5.00,0.00,26.9,25.4,00.0,35.2,28.6,24.7,0000.0,0005.05,0012.67,0004.07
2023-05-09 14:21:00,,0830.0,5.00,0.00,26.9,25.4,00.0,35.2,28.6,24.8,0000.0,0005.06,0012.57,0004.09
2023-05-09 14:22:00,,0830.1,4.99,0.00,26.9,25.4,00.0,35.2,28.6,24.8,0000.0,0005.05,0012.56,0004.10
2023-05-09 14:23:00,,0830.0,5.00,0.00,26.9,25.4,00.0,35.2,28.7,25.0,0000.0,0005.04,0011.95,0004.12
2023-05-09 14:24:00,,0830.0,5.00,0.00,26.9,25.5,00.0,35.2,28.7,25.0,0000.0,0005.03,0010.57,0004.13
2023-05-09 14:25:00,,0830.0,5.00,0.00,26.9,25.5,00.0,35.2,28.7,25.0,0000.0,0005.05,0011.21,0004.13
2023-05-09 14:26:00,,0830.0,5.00,0.00,26.9,25.5,00.0,35.2,28.7,24.9,0000.0,0005.09,0011.72,0004.12
2023-05-09 14:27:00,,0830.0,5.00,0.00,26.9,25.5,00.0,35.2,28.7,24.7,0000.0,0005.08,0011.36,0004.12
2023-05-09 14:28:00,,0830.0,5.00,0.00,26.9,25.5,00.0,35.2,28.7,24.6,0000.0,0005.08,0010.68,0004.13
2023-05-09 14:29:00,,0830.0,5.00,0.00,27.0,25.5,00.0,35.2,28.7,24.5,0000.0,0005.13,0011.27,0004.14
2023-05-09 14:30:00,,0830.0,4.99,0.00,27.0,25.6,00.0,35.3,28.7,24.5,-000.3,0005.16,0011.27,0004.15
2023-05-09 14:31:00,,0830.0,5.00,0.00,27.0,25.6,00.0,35.3,28.7,24.6,-001.0,0005.12,0011.37,0004.14
2023-05-09 14:32:00,,0830.0,5.01,0.00,27.0,25.6,00.0,35.3,28.7,24.9,-001.5,0005.11,0011.32,0004.15
2023-05-09 14:33:00,,0829.9,5.01,0.00,27.0,25.6,00.0,35.3,28.8,25.3,-001.0,0005.12,0011.45,0004.14
2023-05-09 14:34:00,,0829.9,5.00,0.00,27.0,25.6,00.0,35.3,28.8,25.2,-000.5,0005.14,0012.01,0004.13
2023-05-09 14:35:00,,0830.0,4.99,0.00,27.0,25.6,00.0,35.3,28.8,24.9,0000.2,0005.14,0012.19,0004.13
2023-05-09 14:36:00,,0830.0,4.99,0.00,27.0,25.6,00.0,35.3,28.8,25.1,0000.2,0005.10,0011.26,0004.13
2023-05-09 14:37:00,,0830.0,5.00,0.00,27.0,25.6,00.0,35.3,28.8,24.7,0000.1,0005.09,0011.49,0004.13
2023-05-09 14:38:00,,0830.0,5.01,0.00,27.1,25.6,00.0,35.3,28.8,24.8,0001.0,0005.09,0011.40,0004.14
2023-05-09 14:39:00,,0830.0,5.00,0.00,27.1,25.7,00.0,35.4,28.8,24.7,0001.0,0005.08,0011.37,0004.12
2023-05-09 14:40:00,,0830.0,5.00,0.00,27.1,25.7,00.0,35.4,28.8,24.3,0000.8,0005.10,0011.02,0004.12
2023-05-09 14:41:00,,0829.9,4.99,0.00,27.1,25.7,00.0,35.4,28.9,24.2,0000.8,0005.09,0011.06,0004.12
2023-05-09 14:42:00,,0829.9,5.00,0.00,27.1,25.7,00.0,35.4,28.8,24.3,0001.2,0005.09,0011.10,0004.13
2023-05-09 14:43:00,,0829.9,4.99,0.00,27.1,25.7,00.0,35.4,28.9,24.3,0001.7,0005.09,0011.18,0004.12
2023-05-09 14:44:00,,0829.9,5.00,0.00,27.2,25.8,00.0,35.4,28.9,24.3,0001.5,0005.07,0011.05,0004.12
2023-05-09 14:45:00,,0830.0,5.00,0.00,27.2,25.8,00.0,35.4,28.9,24.5,0000.9,0005.06,0010.60,0004.11
2023-05-09 14:46:00,,0830.0,5.01,0.00,27.2,25.8,00.0,35.4,28.9,24.7,0000.4,0005.10,0010.56,0004.10
2023-05-09 14:47:00,,0830.0,5.00,0.00,27.2,25.8,00.0,35.4,29.0,24.1,0000.0,0005.19,0010.95,0004.10
2023-05-09 14:48:00,,0830.0,5.00,0.00,27.2,25.8,00.0,35.5,29.0,23.9,0000.0,0005.22,0010.28,0004.10
2023-05-09 14:49:00,,0830.0,5.00,0.00,27.2,25.8,00.0,35.5,28.9,23.8,0000.0,0005.18,0010.14,0004.09
2023-05-09 14:50:00,,0830.0,5.00,0.00,27.2,25.8,00.0,35.5,29.0,24.0,0000.2,0005.15,0010.14,0004.08
2023-05-09 14:51:00,,0830.1,5.00,0.00,27.2,25.9,00.0,35.5,29.0,23.8,0000.9,0005.10,0010.12,0004.07
2023-05-09 14:52:00,,0830.0,4.99,0.00,27.3,25.9,00.0,35.5,29.0,23.6,0000.4,0005.09,0010.10,0004.07
2023-05-09 14:53:00,,0830.0,4.99,0.00,27.3,25.9,00.0,35.5,29.0,23.7,0000.0,0005.08,0009.93,0004.07
2023-05-09 14:54:00,,0830.0,5.00,0.00,27.3,25.9,00.0,35.5,29.0,24.1,0000.0,0005.06,0010.52,0004.06
2023-05-09 14:55:00,,0830.0,5.01,0.00,27.3,25.9,00.0,35.6,29.1,24.2,0000.0,0005.10,0010.67,0004.05
2023-05-09 14:56:00,,0830.0,5.02,0.00,27.3,25.9,00.0,35.6,29.1,24.3,0000.0,0005.09,0010.63,0004.05
2023-05-09 14:57:00,,0830.0,4.99,0.00,27.3,26.0,00.0,35.6,29.1,24.0,0000.0,0005.10,0010.67,0004.06
2023-05-09 14:58:00,,0830.0,4.99,0.00,27.3,26.0,00.0,35.6,29.1,23.8,0000.0,0005.07,0010.45,0004.07
2023-05-09 14:59:00,,0830.0,5.00,0.00,27.3,26.0,00.0,35.6,29.1,23.5,0000.0,0005.04,0010.34,0004.08
